TimeCDT,TemperatureF,Dew PointF,Humidity,Sea Level PressureIn,VisibilityMPH,Wind Direction,Wind SpeedMPH,Gust SpeedMPH,PrecipitationIn,Events,Conditions,WindDirDegrees,DateUTC
12:54 AM,66.9,61.0,81,29.83,10.0,South,9.2,-,N/A,,Clear,170,2013-05-17 05:54:00
1:54 AM,66.9,61.0,81,29.83,10.0,South,6.9,-,N/A,,Scattered Clouds,190,2013-05-17 06:54:00
2:54 AM,66.0,61.0,84,29.84,10.0,South,6.9,-,N/A,,Mostly Cloudy,180,2013-05-17 07:54:00
3:54 AM,64.0,60.1,87,29.86,10.0,South,6.9,-,N/A,,Mostly Cloudy,170,2013-05-17 08:54:00
4:54 AM,64.0,60.1,87,29.86,10.0,South,6.9,-,N/A,,Partly Cloudy,170,2013-05-17 09:54:00
5:54 AM,63.0,59.0,87,29.87,10.0,South,8.1,-,N/A,,Mostly Cloudy,170,2013-05-17 10:54:00
6:54 AM,64.4,60.8,88,29.90,10.0,SSE,5.8,-,N/A,,Mostly Cloudy,160,2013-05-17 11:54:00
7:54 AM,66.0,61.0,84,29.90,10.0,South,8.1,-,N/A,,Scattered Clouds,170,2013-05-17 12:54:00
8:54 AM,70.0,62.1,76,29.91,10.0,South,10.4,-,N/A,,Partly Cloudy,180,2013-05-17 13:54:00
9:54 AM,73.9,62.1,66,29.91,10.0,South,11.5,-,N/A,,Scattered Clouds,180,2013-05-17 14:54:00
10:54 AM,77.0,61.0,58,29.90,10.0,South,15.0,-,N/A,,Mostly Cloudy,170,2013-05-17 15:54:00
11:54 AM,77.0,62.1,60,29.91,10.0,SSE,15.0,-,N/A,,Mostly Cloudy,160,2013-05-17 16:54:00
12:54 PM,78.1,62.1,58,29.91,10.0,South,10.4,-,N/A,,Mostly Cloudy,180,2013-05-17 17:54:00
1:54 PM,78.8,60.8,54,29.91,10.0,South,9.2,-,N/A,,Mostly Cloudy,170,2013-05-17 18:54:00
2:54 PM,80.1,60.1,50,29.89,10.0,South,9.2,-,N/A,,Mostly Cloudy,180,2013-05-17 19:54:00
3:54 PM,80.1,60.1,50,29.88,10.0,South,12.7,-,N/A,,Mostly Cloudy,180,2013-05-17 20:54:00
4:54 PM,80.1,60.1,50,29.87,10.0,SSE,10.4,-,N/A,,Mostly Cloudy,150,2013-05-17 21:54:00
5:54 PM,79.0,60.1,52,29.87,10.0,South,13.8,-,N/A,,Mostly Cloudy,170,2013-05-17 22:54:00
6:54 PM,75.9,60.1,58,29.88,10.0,SSE,8.1,-,N/A,,Mostly Cloudy,160,2013-05-17 23:54:00
7:54 PM,75.0,60.1,60,29.89,10.0,SE,8.1,-,N/A,,Mostly Cloudy,140,2013-05-18 00:54:00
8:54 PM,73.0,59.0,61,29.89,10.0,SSE,6.9,-,N/A,,Mostly Cloudy,150,2013-05-18 01:54:00
9:54 PM,71.1,59.0,66,29.89,10.0,SE,8.1,-,N/A,,Scattered Clouds,140,2013-05-18 02:54:00
10:54 PM,69.1,59.0,70,29.91,10.0,SSE,6.9,-,N/A,,Partly Cloudy,150,2013-05-18 03:54:00
11:54 PM,68.0,59.0,73,29.92,10.0,South,3.5,-,N/A,,Clear,180,2013-05-18 04:54:00